Address 0xee02075d3a36640e069c54184acb898f17f5b78b 10

Txn Hash
Block
From
To
Value [Txn Fee]
0x1040c2db956580fa1c3e1e384a980a2d9dcb68478fe05f4da185fc91276581b2104074252021-07-08 8:27:5723 days 1 hr ago0xee02075d3a36640e069c54184acb898f17f5b78bOUT 0x094616f0bdfb0b526bd735bf66eca0ad254ca81f0 BNB0.00036904
0x4b05c00ef7f5579f62bd1390912acc82b3abbd63e6ca30eb84fdf8c4da572d78104073532021-07-08 8:24:2123 days 1 hr ago0xee02075d3a36640e069c54184acb898f17f5b78bOUT 0x094616f0bdfb0b526bd735bf66eca0ad254ca81f0.5 BNB0.00043402
0x79427d4836c5384518861224541d9c4e0b60921f2a566f8ae84e1b3a390d334c104073312021-07-08 8:23:1523 days 1 hr ago0xaa25aa7a19f9c426e07dee59b12f944f4d9f1dd3 IN 0xee02075d3a36640e069c54184acb898f17f5b78b1 BNB0.000378
0xe12de86d9e326bf26af338c90a8a631d2fc852b2d7a3c462a5927ccf9211dbf0103519772021-07-06 9:01:1725 days 1 hr ago0xee02075d3a36640e069c54184acb898f17f5b78bOUT0xfc398cf4bc62ae065008d81f707e2660c4c1848e15.337275044878857 BNB0.00021
0x3249a25828159a90439a0bc436c08fc0a02a83d0c11fa0407b26048845d66d78103282492021-07-05 12:29:1225 days 21 hrs ago0xee02075d3a36640e069c54184acb898f17f5b78bOUT 0xcde540d7eafe93ac5fe6233bee57e1270d3e330f0.1 BNB0.00177645
0x8628208477c3986f0268af77bfc5275bc3d19723326194e7f630b044a9362539103282362021-07-05 12:28:3325 days 21 hrs ago0xee02075d3a36640e069c54184acb898f17f5b78bOUT 0xcde540d7eafe93ac5fe6233bee57e1270d3e330f1 BNB0.02708324
0x9af4eb40622d4117cb26c9b274196b25b695f5ba8cb684db8fa66b932a967227103282292021-07-05 12:28:1225 days 21 hrs ago0xee02075d3a36640e069c54184acb898f17f5b78bOUT 0x7c075b532a7a7092a45780250e0146646fde5ef70 BNB0.00044244
0x2cdf7ee7be598d3fa5cb5cff5f3a59d89c57d1a570f19b13511423cec1f3d727100203922021-06-24 18:15:1636 days 16 hrs ago0xee02075d3a36640e069c54184acb898f17f5b78bOUT Contract Creation0 BNB0.00980523
0x46a9f8e59d3e5503ec682e5d2a581114aab15faec3d14b7d4c25181b628b660498957662021-06-20 10:23:5840 days 23 hrs ago0xee02075d3a36640e069c54184acb898f17f5b78bOUT Contract Creation0 BNB0.00928871
0x572e92de8887f34ee72abbec5bdf3202a76060d98bf772be14b1de6aab436cb298955232021-06-20 10:11:4941 days 11 mins ago0xee02075d3a36640e069c54184acb898f17f5b78bOUT Contract Creation0 BNB0.00329488
0x39d678bc2555f9e959b9ddb248849ad4d8a8d83fbb07c5f2974f2d1cd080311998955122021-06-20 10:11:1641 days 11 mins ago0xee02075d3a36640e069c54184acb898f17f5b78bOUT Contract Creation0 BNB0.00072217
0x93ec81e49d19eaec426c1377e995c690c67031e8929c5c0870f105d5e8afd3ed98955022021-06-20 10:10:4641 days 12 mins ago0xee02075d3a36640e069c54184acb898f17f5b78bOUT Contract Creation0 BNB0.00072217
0xcd4dd4898079b4c553b1c388af5df8907d1c34e340948868b756c6b8c6579ed398954282021-06-20 10:07:0441 days 15 mins ago0xee02075d3a36640e069c54184acb898f17f5b78bOUT Contract Creation0 BNB0.00730901
0x770d6588bbf8356cafad2db748b326b30138f5ed3ffdb1a4e1612878fa83aeba97581152021-06-15 15:41:1145 days 18 hrs ago0xee02075d3a36640e069c54184acb898f17f5b78bOUT 0x66b5a2069fd327669ef3d3f441b828287c5108570 BNB0.00043532
0x695062b5b6c1c7f0d4f025380b8ae9e69d57d22b5e5dc256f7ae406ca7d8aa6a97580722021-06-15 15:39:0245 days 18 hrs ago0xee02075d3a36640e069c54184acb898f17f5b78bOUT 0x913c9872e9ea902e7b3f69e59c1776458155f6400 BNB0.00043532
0x97dbc3b45e70ce428e25e7d0ef4320100ac4f7dfa254f25fb58a5857edba948097580532021-06-15 15:38:0545 days 18 hrs ago0xee02075d3a36640e069c54184acb898f17f5b78bOUT Contract Creation0 BNB0.01531359
0x6e76776c0af9cfa100acfd528482cb48318a88767eff4721c5c200c00945dc3c97578682021-06-15 15:28:5045 days 18 hrs ago0xee02075d3a36640e069c54184acb898f17f5b78bOUT0x52bf55fff7af61d7e49c9dbfa72d3498a4a317ab1 BNB0.00021
0x9e4cc11d188f833d8173ad8b3f44d68473b4b4ed875ccbd60a0b9eed41383b3397578572021-06-15 15:28:1745 days 18 hrs ago0xee02075d3a36640e069c54184acb898f17f5b78bOUT 0xcde540d7eafe93ac5fe6233bee57e1270d3e330f0 BNB0.00119082
0x7d1722d5f22073c925bd80adc7eb6dd35b0a79d1366c52a27c957cca168b635a97578502021-06-15 15:27:5645 days 18 hrs ago0xee02075d3a36640e069c54184acb898f17f5b78bOUT 0xcde540d7eafe93ac5fe6233bee57e1270d3e330f1 BNB0.00177917
0x97a5f4a9bf21ac63c9c73e7dcfa0e4bc5d18f1f36199bbc3bf50a57bce23610397578352021-06-15 15:27:1145 days 18 hrs ago0xee02075d3a36640e069c54184acb898f17f5b78bOUT 0xcde540d7eafe93ac5fe6233bee57e1270d3e330f11 BNB0.02709858
0xd3baff163f3918a54ba1b9e31ce0cccf0ce143f52aeebc3cbd6a1c8446e43e5497578252021-06-15 15:26:4145 days 18 hrs ago0xee02075d3a36640e069c54184acb898f17f5b78bOUT 0x66b5a2069fd327669ef3d3f441b828287c5108570 BNB0.00044334
0x4bfa53041b5dad77ab74b8bc1f2a45b29758b6647e4d4c4add43b370a8fbbaf697577862021-06-15 15:24:4445 days 18 hrs ago0xee02075d3a36640e069c54184acb898f17f5b78bOUT Contract Creation0 BNB0.01531359
0x7f76c1d5843776209f65be4c6f95d0615ac4110df4ad5775a67e86e0f7cc5e5597575082021-06-15 15:10:5045 days 19 hrs ago0xee02075d3a36640e069c54184acb898f17f5b78bOUT Contract Creation0 BNB0.00508139
0xf38eaa3a85c2676b5555b11dbb8c13d167d13a4890ea20e11722e6e2f411d08197574722021-06-15 15:09:0245 days 19 hrs ago0xee02075d3a36640e069c54184acb898f17f5b78bOUT 0x5e1f56901b811c9d76233c1b7beebb912ea3f0780 BNB0.00021592
0x3d4ba3d3fb988e23b7e605914682ebe498c473a47a73a5d45a7b9e6109e4c49597573852021-06-15 15:04:4145 days 19 hrs ago0xee02075d3a36640e069c54184acb898f17f5b78bOUT Contract Creation0 BNB0.00071714
[ Download CSV Export 
Latest 3 internal transactions
Parent Txn Hash Block From To Value
0x9e4cc11d188f833d8173ad8b3f44d68473b4b4ed875ccbd60a0b9eed41383b3397578572021-06-15 15:28:1745 days 18 hrs ago 0xcde540d7eafe93ac5fe6233bee57e1270d3e330f0xee02075d3a36640e069c54184acb898f17f5b78b0.994505506874306997 BNB
0x49b849fbcddaf9b61026a123348db50a5e244ac5de4a2cfe4e47fc10015fd9c094954302021-06-06 12:45:5154 days 21 hrs ago 0xcde540d7eafe93ac5fe6233bee57e1270d3e330f0xee02075d3a36640e069c54184acb898f17f5b78b35.459790890029725469 BNB
0xdd80a0c9f6ef0126bc2f213ec060ef8a83e169352124bb6ee21ba28e5698db6094949682021-06-06 12:22:4554 days 22 hrs ago 0xcde540d7eafe93ac5fe6233bee57e1270d3e330f0xee02075d3a36640e069c54184acb898f17f5b78b1.942736637974824865 BNB
[ Download CSV Export 
Loading

Contract Name:
0 BNB

Compiler Version
0

Optimization Enabled:
0 BNB

Other Settings:
-NA-
Block Transaction Gas Used Reward
Age Block Fee Address BC Fee Address Voting Power Jailed Incoming
Block Uncle Number Difficulty Gas Used Reward
Loading